Location: Bushrod
(6.3500°N, 10.7833°W)
Time: 21:23:17
(UTC+00:00)

Cosmos 2322 Rocket - Pass Details

Date: 17 September 2019
Orbit: 834 x 849 km, 71.0° (Epoch: 16 October)

Event Time Altitude Azimuth Distance (km) Brightness Sun altitude
Rises 20:24:47 0° 321° (NW) 3,370 5.9 -26.3°
Reaches altitude 10° 20:27:39 10° 308° (NW) 2,439 5.3 -27.0°
Maximum altitude 20:32:02 24° 256° (WSW) 1,670 4.3 -28.1°
Drops below altitude 10° 20:36:27 10° 204° (SSW) 2,449 4.8 -29.2°
Sets 20:39:21 0° 190° (S) 3,387 5.4 -29.9°
